Weather Roundup
Issued by NWS Corpus Christi, TX

Home | Current Version | Previous Version | Text Only | Print | Product List | Glossary On
Versions: 1 2 3 4 5 6 7 8 9 10 11 12 13 14 15 16 17 18 19 20 21 22 23 24 25 26 27 28 29 30 31 32 33 34 35 36 37 38 39 40 41 42 43 44 45 46 47 48 49 50
431
ASUS44 KCRP 081510
HRRCRP

SOUTH TEXAS REGIONAL WEATHER ROUNDUP
NATIONAL WEATHER SERVICE CORPUS CHRISTI TX
900 AM CST THU DEC 08 2016


TXZ229>244-081600-
...CORPUS CHRISTI AREA OBSERVATIONS...

CITY           SKY/WX    TMP DP  RH WIND       PRES   REMARKS
CORPUS CHRISTI CLOUDY    54  49  83 NE25G37   30.27R
NAS CORPUS CHR CLOUDY    53  51  93 N30G38    30.27R
ROCKPORT         N/A    N/A N/A N/A MISG      30.31R
KINGSVILLE NAS LGT RAIN  54  51  90 N17G30    30.29R
ALICE          LGT RAIN  52  47  83 N23G30    30.30R
ORANGE GROVE   CLOUDY    51  47  86 NE22G33   30.32R
FALFURRIAS     CLOUDY    53  49  87 N17       30.28R
$$

...VICTORIA AREA OBSERVATIONS...

CITY           SKY/WX    TMP DP  RH WIND       PRES   REMARKS
VICTORIA       CLOUDY    49  43  80 N23G31    30.36R
BEEVILLE       CLOUDY    49  45  87 NE18G29   30.32R
PLEASANTON     CLOUDY    47  36  67 N16G31    30.40R
SAN ANTONIO    PTSUNNY   43  31  62 N24G31    30.41R
$$

...LAREDO AREA OBSERVATIONS...

CITY           SKY/WX    TMP DP  RH WIND       PRES   REMARKS
LAREDO         CLOUDY    51  47  86 N10       30.37R
COTULLA        CLOUDY    51  39  63 N17G25    30.40R
DEL RIO        CLOUDY    44  33  65 NW10G18   30.47R
MCALLEN        CLOUDY    59  54  83 N20G26    30.24R
HEBBRONVILLE   CLOUDY    48  46  93 N16G25    30.31R FOG
$$

...OTHER TEXAS OBSERVATIONS...

CITY           SKY/WX    TMP DP  RH WIND       PRES   REMARKS
BROWNSVILLE    RAIN      64  63  96 N18G24    30.16R FOG
HOUSTON        CLOUDY    47  43  86 N22G29    30.40R
COL. STATION   CLOUDY    42  37  82 N20       30.47R
AUSTIN         CLOUDY    42  28  57 N29G39    30.47R
WACO           CLOUDY    36  28  73 N22G33    30.56R WCI  25
FORT WORTH     CLOUDY    33  22  63 N18       30.61R WCI  22
WICHITA FALLS  CLOUDY    27  15  61 N17       30.67R WCI  14
LUBBOCK        CLOUDY    24  17  74 NE13      30.57R WCI  12
EL PASO        CLOUDY    37  25  61 E8        30.37R
$$

...MARINE OBSERVATIONS...

STATION/POSITION TIME  SKY/WX   TEMP    WIND        PRES    VSBY  WAVE   SWELL
                                AIR SEA DIR/SP/G                  HT/PER HT/PER
                 (UTC)          (F)     (DEG/KT/KT) (MB)    (MI)  (FT/S) (FT/S)
PORT ARANSAS     1400            56 63   10/ 25/ 31 1023.6R
BUOY 90 E PORT A 1450            64 77   20/ 31/ 37 1021.8R        10/ 8
BUOY 45 SE BAFFI 1450            67 76   30/ 31/ 37 1020.3R        12/ 8
BUOY 200 E PT IS 1450            75 77   70/ 16/ 17 1018.7R         4/ 6
BUOY 15 E GALVES 1450            56 66   10/ 27/ 31 1025.2R         6/ 6
$$




USA.gov is the U.S. government's official web portal to all federal, state and local government web resources and services.